YAOGAN 9A

导读 | 星芒AI

YAOGAN 9A 是中国于2019年9月发射的一颗遥感卫星,属于遥感九号系列。该卫星主要用于科学实验、国土资源普查、农作物估产及防灾减灾等领域,具备高分辨率对地观测能力。它由中国航天科技集团公司研制,搭载先进的光学遥感设备,能够提供高质量的地球影像数据,服务于国家经济建设与社会发展。YAOGAN 9A 的成功发射,进一步提升了中国在遥感技术领域的应用水平和数据获取能力。

基本信息
目录编号:
36413
目录名称:
YAOGAN 9A
国际标识:
2010-009A
轨道中心:
EARTH
卫星名称:
YAOGAN 9A
卫星全名:
--
卫星状态:
在轨 (已飞行5764 天)
发射日期:
2010-03-05 UTC
国别 :
中国 (CN)
星等 :
--
轨道信息
数据来源 国际轨道数据 AOE轨道数据
星历时间 2025-12-15T02:11:31+0800
1天前
查看轨道信息
2025-12-12T13:00:00+0800
3天前
查看轨道信息
半长轴 7466.437km 7466.443km
偏心率 0.0521842 0.0521623
轨道倾角 63.367° 63.367°
近地点辐角 20.304° 20.305°
升交点赤经 115.372° 121.967°
平近点角 341.792° 230.320°
近地点 698.671km 698.841km
远地点 1477.933km 1477.775km
周期 107.011分钟 107.011分钟
每日圈数 13.456517 13.456503
详细信息
使用方式:
暂无
2D轨道图
3D轨道图
轨道高度分析图
轨道倾角分析图
轨道综合分析图
查看轨道综合分析图